Content
SEND FEEDBACK

Daily
Averages
Monthly
Summary
Philippines

BAGUMBAYAN, PHILIPPINES


Home > Asia > Philippines
Elevation: 49 feet     Latitude: 14 31N     Longitude: 121 00E

WEATHER
 
SELECT A DAY
Number of Records: 172,634;   Date Range: 7/1/96 - 8/30/14
 
SHARE

PRINT THIS DATA

[ ← Previous Day ]
WEATHER ALMANAC - FEBRUARY 25, 2013
[ Next Day → ]
[ °C ]   °F
Weather ElementAverageHighLow
Temperature82.5 °F88 °F (2:00 pm)77 °F (6:00 am)
Dewpoint72.3 °F75.2 °F (1:00 am)69.8 °F (3:00 pm)
Humidity70.3 %89 % (1:00 am)49 % (2:00 pm)
Barometer29.92 in29.98 in (10:00 am)29.86 in (3:00 pm)
Wind Speed10.4 mph17.9 mph (11:00 am)
Wind Gust26.5 mph (4:00 pm)
Weather ElementAverage
Visibility6.1 mi
Wind DirectionE (92.6 °)

Weather ElementTotal
Precipitation---
Cooling Degree Days17.5 (Base 65)
Growing Degree Days32.5 (Base 50)
Averaged from 31 records on February 25, 2013
WEATHER CONDITIONS BREAKOUT
WIND DIRECTION BREAKOUT
WEATHER BY HOUR - FEBRUARY 25, 2013
[ °C ]   °F
Local TimeTemperatureDewpointHumidityBarometerVisibilityWind DirectionWind SpeedGust SpeedPrecipitationEventsConditions
1:00 AM78.8 °F75.2 °F89 %29.92 in6.2 miEast (100°)8.1 mphMostly Cloudy
2:00 AM78.0 °F74.0 °F84 %29.92 in6.0 miEast (80°)6.7 mphHaze
2:00 AM78.8 °F73.4 °F83 %29.92 in6.2 miEast (80°)6.9 mphMostly Cloudy
3:00 AM78.8 °F73.4 °F83 %29.89 in6.2 miESE (120°)2.3 mphMostly Cloudy
4:00 AM78.8 °F73.4 °F83 %29.89 in6.2 miENE (70°)3.5 mphMostly Cloudy
5:00 AM78.0 °F73.0 °F82 %29.90 in6.0 miENE (70°)4.5 mphHaze
5:00 AM78.8 °F73.4 °F83 %29.89 in6.2 miEast (90°)3.5 mphScattered Clouds
6:00 AM77.0 °F73.4 °F89 %29.92 in6.2 miEast (90°)3.5 mphScattered Clouds
7:00 AM78.8 °F75.2 °F89 %29.95 in6.2 miENE (60°)5.8 mphPartly Cloudy
8:00 AM81.0 °F73.0 °F71 %29.96 in6.0 miEast (90°)6.7 mphHaze
8:00 AM80.6 °F73.4 °F79 %29.95 in6.2 miEast (90°)8.1 mphScattered Clouds
9:00 AM84.2 °F73.4 °F70 %29.95 in6.2 miEast (90°)9.2 mphScattered Clouds
10:00 AM86.0 °F71.6 °F62 %29.98 in6.2 miEast (100°)15.0 mphScattered Clouds
11:00 AM87.0 °F72.0 °F52 %29.96 in6.0 miEast (90°)17.9 mphPartly Cloudy
11:00 AM87.8 °F71.6 °F58 %29.95 in6.2 miEast (90°)17.3 mphPartly Cloudy
12:00 PM87.8 °F71.6 °F58 %29.92 in6.2 miESE (110°)16.1 mphPartly Cloudy
1:00 PM87.8 °F71.6 °F58 %29.92 in6.2 miEast (90°)17.3 mphPartly Cloudy
2:00 PM88.0 °F71.0 °F49 %29.90 in6.0 miESE (110°)15.7 mphPartly Cloudy
2:00 PM87.8 °F71.6 °F58 %29.89 in6.2 miESE (110°)16.1 mphPartly Cloudy
3:00 PM87.8 °F69.8 °F55 %29.86 in6.2 miESE (110°)17.3 mphPartly Cloudy
4:00 PM87.8 °F71.6 °F58 %29.86 in6.2 miEast (100°)15.0 mph26.5 mphPartly Cloudy
5:00 PM85.0 °F71.0 °F55 %29.87 in6.0 miEast (100°)15.7 mphScattered Clouds
5:00 PM84.2 °F71.6 °F66 %29.86 in6.2 miEast (100°)16.1 mphPartly Cloudy
6:00 PM84.2 °F71.6 °F66 %29.89 in6.2 miEast (90°)10.4 mphPartly Cloudy
7:00 PM82.4 °F71.6 °F70 %29.89 in6.2 miEast (90°)9.2 mphPartly Cloudy
8:00 PM81.0 °F71.0 °F66 %29.93 in6.0 miEast (100°)8.9 mphScattered Clouds
8:00 PM80.6 °F71.6 °F74 %29.92 in6.2 miEast (100°)9.2 mphPartly Cloudy
9:00 PM80.6 °F71.6 °F74 %29.95 in6.2 miEast (90°)11.5 mphPartly Cloudy
10:00 PM80.6 °F71.6 °F74 %29.95 in6.2 miEast (90°)10.4 mphPartly Cloudy
11:00 PM80.0 °F71.0 °F66 %29.96 in6.0 miEast (80°)6.7 mphScattered Clouds
11:00 PM80.6 °F71.6 °F74 %29.95 in6.2 miEast (90°)6.9 mphPartly Cloudy
Hourly data recorded from RPLL, located miles away from Bagumbayan, Philippines







STORIES FROM OUR PARTNERS